• In Deutschland
  • Länderverzeichnis
  • Für 7 Tage
  • Wassertemperatur
  • Satellitenkarten
  • Wetterkarte
  • Widgets
  • user-avatar
    Anmelden

    Stündliche Wetter Eschweiler

    Heute, 26 April, Donnerstag

    Zeit Temperatur Niederschläge Wind Luftdruck Luftfeuchtigkeit
    00:00 +6°C° 0 mm 5 m/S 747 mmHg 81%
    01:00 +6°C° 0 mm 5 m/S 747 mmHg 82%
    02:00 +6°C° 0 mm 5 m/S 747 mmHg 83%
    03:00 +6°C° 0 mm 5 m/S 747 mmHg 84%
    04:00 +5°C° 0 mm 6 m/S 747 mmHg 83%
    05:00 +5°C° 0 mm 6 m/S 748 mmHg 82%
    06:00 +5°C° 0 mm 6 m/S 748 mmHg 80%
    07:00 +7°C° 0 mm 6 m/S 748 mmHg 77%
    08:00 +8°C° 0 mm 6 m/S 749 mmHg 73%
    09:00 +9°C° 0 mm 6 m/S 749 mmHg 69%
    10:00 +10°C° 0,1 mm 6 m/S 749 mmHg 64%
    11:00 +11°C° 0,1 mm 6 m/S 749 mmHg 59%
    12:00 +13°C° 0,1 mm 6 m/S 749 mmHg 54%
    13:00 +13°C° 0,3 mm 6 m/S 749 mmHg 54%
    14:00 +13°C° 0,3 mm 6 m/S 749 mmHg 54%
    15:00 +13°C° 0,3 mm 5 m/S 749 mmHg 54%
    16:00 +12°C° 0,1 mm 4 m/S 749 mmHg 59%
    17:00 +12°C° 0,1 mm 4 m/S 749 mmHg 63%
    18:00 +11°C° 0,1 mm 3 m/S 749 mmHg 68%
    19:00 +10°C° 0 mm 2 m/S 749 mmHg 72%
    20:00 +8°C° 0 mm 2 m/S 749 mmHg 75%
    21:00 +7°C° 0 mm 2 m/S 749 mmHg 79%
    22:00 +7°C° 0 mm 2 m/S 749 mmHg 80%
    23:00 +6°C° 0 mm 2 m/S 749 mmHg 81%

    Morgen, 27 April, Freitag

    Zeit Temperatur Niederschläge Wind Luftdruck Luftfeuchtigkeit
    00:00 +6°C° 0 mm 2 m/S 749 mmHg 82%
    01:00 +6°C° 0 mm 2 m/S 748 mmHg 82%
    02:00 +5°C° 0 mm 2 m/S 748 mmHg 82%
    03:00 +5°C° 0 mm 2 m/S 747 mmHg 81%
    04:00 +6°C° 0 mm 2 m/S 747 mmHg 80%
    05:00 +7°C° 0 mm 2 m/S 747 mmHg 78%
    06:00 +8°C° 0 mm 2 m/S 746 mmHg 76%
    07:00 +9°C° 0 mm 2 m/S 746 mmHg 70%
    08:00 +12°C° 0 mm 2 m/S 745 mmHg 64%
    09:00 +13°C° 0 mm 3 m/S 745 mmHg 58%
    10:00 +14°C° 0 mm 3 m/S 744 mmHg 54%
    11:00 +16°C° 0 mm 3 m/S 744 mmHg 51%
    12:00 +17°C° 0 mm 4 m/S 743 mmHg 48%
    13:00 +18°C° 0 mm 4 m/S 743 mmHg 47%
    14:00 +17°C° 0 mm 5 m/S 742 mmHg 46%
    15:00 +19°C° 0 mm 5 m/S 741 mmHg 45%
    16:00 +18°C° 0 mm 4 m/S 741 mmHg 52%
    17:00 +17°C° 0 mm 4 m/S 741 mmHg 59%
    18:00 +14°C° 0 mm 4 m/S 741 mmHg 67%
    19:00 +13°C° 0,1 mm 4 m/S 741 mmHg 71%
    20:00 +12°C° 0,1 mm 4 m/S 742 mmHg 76%
    21:00 +11°C° 0,1 mm 4 m/S 742 mmHg 81%
    22:00 +9°C° 0 mm 5 m/S 742 mmHg 81%
    23:00 +8°C° 0 mm 5 m/S 742 mmHg 81%

    übermorgen, 28 April, Samstag

    Zeit Temperatur Niederschläge Wind Luftdruck Luftfeuchtigkeit
    00:00 +8°C° 0 mm 5 m/S 742 mmHg 81%
    01:00 +8°C° 0 mm 5 m/S 743 mmHg 81%
    02:00 +8°C° 0 mm 5 m/S 743 mmHg 81%
    03:00 +8°C° 0 mm 5 m/S 743 mmHg 81%
    04:00 +8°C° 0,1 mm 5 m/S 744 mmHg 83%
    05:00 +8°C° 0,1 mm 5 m/S 745 mmHg 86%
    06:00 +8°C° 0,1 mm 5 m/S 745 mmHg 88%
    07:00 +8°C° 0,1 mm 4 m/S 746 mmHg 87%
    08:00 +8°C° 0,1 mm 4 m/S 746 mmHg 86%
    09:00 +8°C° 0,1 mm 4 m/S 747 mmHg 85%
    10:00 +9°C° 0 mm 3 m/S 747 mmHg 81%
    11:00 +10°C° 0 mm 3 m/S 747 mmHg 77%
    12:00 +10°C° 0 mm 3 m/S 747 mmHg 73%
    13:00 +10°C° 0 mm 2 m/S 747 mmHg 71%
    14:00 +12°C° 0 mm 2 m/S 747 mmHg 69%
    15:00 +12°C° 0 mm 2 m/S 747 mmHg 67%
    16:00 +10°C° 0 mm 2 m/S 747 mmHg 69%
    17:00 +10°C° 0 mm 2 m/S 747 mmHg 70%
    18:00 +10°C° 0 mm 2 m/S 747 mmHg 72%
    19:00 +9°C° 0 mm 2 m/S 747 mmHg 73%
    20:00 +8°C° 0 mm 2 m/S 747 mmHg 74%
    21:00 +8°C° 0 mm 2 m/S 747 mmHg 76%
    22:00 +7°C° 0 mm 3 m/S 747 mmHg 78%
    23:00 +7°C° 0 mm 3 m/S 746 mmHg 80%

    29 April, Sonntag

    Zeit Temperatur Niederschläge Wind Luftdruck Luftfeuchtigkeit
    00:00 +7°C° 0 mm 3 m/S 746 mmHg 82%
    01:00 +7°C° 0,9 mm 3 m/S 745 mmHg 85%
    02:00 +7°C° 0,9 mm 3 m/S 745 mmHg 87%
    03:00 +7°C° 0,9 mm 3 m/S 744 mmHg 89%
    04:00 +6°C° 2 mm 4 m/S 743 mmHg 91%
    05:00 +6°C° 2 mm 4 m/S 743 mmHg 92%
    06:00 +6°C° 2 mm 5 m/S 742 mmHg 94%
    07:00 +7°C° 1,9 mm 5 m/S 742 mmHg 93%
    08:00 +8°C° 1,9 mm 5 m/S 741 mmHg 92%
    09:00 +8°C° 1,9 mm 6 m/S 741 mmHg 91%
    10:00 +12°C° 0,1 mm 5 m/S 740 mmHg 83%
    11:00 +15°C° 0,1 mm 5 m/S 740 mmHg 75%
    12:00 +19°C° 0,1 mm 4 m/S 739 mmHg 68%
    13:00 +19°C° 0,8 mm 4 m/S 738 mmHg 69%
    14:00 +19°C° 0,8 mm 4 m/S 737 mmHg 71%
    15:00 +20°C° 0,8 mm 4 m/S 736 mmHg 73%
    16:00 +18°C° 2 mm 4 m/S 736 mmHg 78%
    17:00 +17°C° 2 mm 4 m/S 736 mmHg 83%
    18:00 +15°C° 2 mm 4 m/S 736 mmHg 88%
    19:00 +14°C° 0,8 mm 4 m/S 736 mmHg 89%
    20:00 +12°C° 0,8 mm 4 m/S 736 mmHg 91%
    21:00 +11°C° 0,8 mm 3 m/S 737 mmHg 92%
    22:00 +11°C° 0,1 mm 4 m/S 737 mmHg 91%
    23:00 +10°C° 0,1 mm 4 m/S 737 mmHg 90%

    30 April, Montag

    Zeit Temperatur Niederschläge Wind Luftdruck Luftfeuchtigkeit
    00:00 +8°C° 0,1 mm 5 m/S 737 mmHg 89%
    01:00 +8°C° 0 mm 5 m/S 737 mmHg 89%
    02:00 +7°C° 0 mm 5 m/S 737 mmHg 88%
    03:00 +7°C° 0 mm 5 m/S 737 mmHg 88%
    04:00 +7°C° 0 mm 5 m/S 738 mmHg 87%
    05:00 +7°C° 0 mm 6 m/S 738 mmHg 85%
    06:00 +7°C° 0 mm 6 m/S 739 mmHg 84%
    07:00 +6°C° 0 mm 7 m/S 739 mmHg 79%
    08:00 +6°C° 0 mm 7 m/S 740 mmHg 75%
    09:00 +8°C° 0 mm 7 m/S 740 mmHg 70%
    10:00 +7°C° 0 mm 8 m/S 740 mmHg 68%
    11:00 +9°C° 0 mm 8 m/S 741 mmHg 65%
    12:00 +9°C° 0 mm 8 m/S 741 mmHg 63%
    13:00 +9°C° 0,1 mm 8 m/S 741 mmHg 62%
    14:00 +9°C° 0,1 mm 8 m/S 741 mmHg 61%
    15:00 +10°C° 0,1 mm 8 m/S 741 mmHg 61%
    16:00 +9°C° 0,1 mm 7 m/S 742 mmHg 64%
    17:00 +8°C° 0,1 mm 6 m/S 742 mmHg 66%
    18:00 +8°C° 0,1 mm 6 m/S 742 mmHg 69%
    19:00 +7°C° 0 mm 6 m/S 742 mmHg 72%
    20:00 +5°C° 0 mm 6 m/S 743 mmHg 75%
    21:00 +4°C° 0 mm 6 m/S 743 mmHg 78%
    22:00 +3°C° 0 mm 5 m/S 744 mmHg 80%
    23:00 +3°C° 0 mm 5 m/S 744 mmHg 82%

    1 Mai, Dienstag

    Zeit Temperatur Niederschläge Wind Luftdruck Luftfeuchtigkeit
    00:00 +2°C° 0 mm 5 m/S 745 mmHg 84%
    01:00 +2°C° 0 mm 5 m/S 745 mmHg 85%
    02:00 +1°C° 0 mm 5 m/S 745 mmHg 85%
    03:00 +1°C° 0 mm 4 m/S 746 mmHg 86%
    04:00 +2°C° 0 mm 5 m/S 746 mmHg 84%
    05:00 +2°C° 0 mm 5 m/S 746 mmHg 81%
    06:00 +2°C° 0 mm 5 m/S 747 mmHg 79%
    07:00 +5°C° 0 mm 5 m/S 747 mmHg 73%
    08:00 +6°C° 0 mm 5 m/S 747 mmHg 66%
    09:00 +7°C° 0 mm 5 m/S 748 mmHg 60%
    10:00 +8°C° 0 mm 5 m/S 748 mmHg 57%
    11:00 +9°C° 0 mm 5 m/S 748 mmHg 54%
    12:00 +10°C° 0 mm 5 m/S 748 mmHg 51%
    13:00 +11°C° 0 mm 4 m/S 748 mmHg 50%
    14:00 +11°C° 0 mm 4 m/S 748 mmHg 49%
    15:00 +11°C° 0 mm 3 m/S 748 mmHg 48%
    16:00 +11°C° 0 mm 3 m/S 748 mmHg 52%
    17:00 +10°C° 0 mm 2 m/S 748 mmHg 57%
    18:00 +11°C° 0 mm 1 m/S 748 mmHg 61%
    19:00 +9°C° 0 mm 1 m/S 749 mmHg 66%
    20:00 +8°C° 0 mm 1 m/S 749 mmHg 70%
    21:00 +6°C° 0 mm 1 m/S 749 mmHg 74%
    22:00 +6°C° 0 mm 1 m/S 749 mmHg 76%
    23:00 +6°C° 0 mm 1 m/S 749 mmHg 78%
    Mehr zeigen